Regional Weather Roundup
Issued by NWS

Home | Current Version | Previous Version | Text Only | Print | Product List | Glossary Off
Versions: 1 2 3 4 5 6 7 8 9 10 11 12 13 14 15 16 17 18 19 20 21 22 23 24 25 26 27 28 29 30 31 32 33 34 35 36 37 38 39 40 41 42 43 44 45 46 47 48 49 50

000
ASUS43 KMKX 260703
RWRWI

WISCONSIN REGIONAL WEATHER ROUNDUP
NATIONAL WEATHER SERVICE MILWAUKEE/SULLIVAN WI
200 AM CDT TUE MAY 26 2015

NOTE: "FAIR" INDICATES FEW OR NO CLOUDS BELOW 12,000 FEET WITH NO
SIGNIFICANT WEATHER AND/OR OBSTRUCTIONS TO VISIBILITY.

WIZ001-002-006>008-014>016-023>028-260800-
NORTHWEST WISCONSIN

CITY           SKY/WX    TMP DP  RH WIND       PRES   REMARKS
SUPERIOR ARPT  RAIN      46  46 100 CALM      29.81S VSB 1
ASHLAND        CLOUDY    50  50 100 CALM      29.80S
HAYWARD        MOCLDY    54  52  93 CALM      29.79R
SIREN          CLOUDY    53  53  97 CALM      29.79R
CUMBERLAND     FOG       55  55 100 CALM      29.80R VSB 1/4
RICE LAKE      PTCLDY    59  58  95 CALM      29.81R FOG
CHETEK         FOG       58  58 100 E3        29.80R VSB 1
LADYSMITH      CLEAR     62  61  97 S3        29.81S
EAU CLAIRE     PTCLDY    57  57 100 S3        29.80R FOG
MENOMONIE      PTCLDY    59  59  99 CALM      29.81R
NEW RICHMOND   FOG       60  60 100 CALM      29.80R VSB 1/2
OSCEOLA        PTCLDY    55  55 100 CALM      29.82R
$$

WIZ003>005-009-010-017-018-260800-
NORTH CENTRAL WISCONSIN

CITY           SKY/WX    TMP DP  RH WIND       PRES   REMARKS
MANITOWISH WTR MOCLDY    59  59 100 SW7       29.80S
ARBOR VITAE    PTCLDY    60  58  94 S5        29.81S
WOODRUFF       PTCLDY    60  58  94 S5        29.81S
RHINELANDER    MOCLDY    60  58  92 SW7       29.83S
EAGLE RIVER    CLOUDY    60  60  98 SW3       29.81S
LAND O LAKES   MOCLDY    60  59  96 SW3       29.81S
PHILLIPS       MOCLDY    60  60  99 S6        29.80S
TOMAHAWK       FOG       57  56  96 CALM      29.83R VSB 1
MEDFORD        CLEAR     57  57  99 S6        29.83R
MERRILL        FOG       55  55 100 CALM      29.83F VSB 1/2
$$

WIZ029-030-035-036-043>047-260800-
CENTRAL WISCONSIN

CITY           SKY/WX    TMP DP  RH WIND       PRES   REMARKS
WAUSAU         CLEAR     61  60  97 SW6       29.82S
MOSINEE        CLEAR     59  59 100 S7        29.85R
MARSHFIELD     PTCLDY    64  60  87 S9        29.83R
STEVENS POINT  CLEAR     60  59  97 S3        29.85R
WAUPACA        CLEAR     64  63  96 CALM      29.85R
WAUTOMA        NOT AVBL
WISC RAPIDS    PTCLDY    64  60  87 SW5       29.85R
CAMP DOUGLAS   NOT AVBL
$$

WIZ011>013-019>022-031-037>040-048>050-260800-
NORTHEAST WISCONSIN

CITY           SKY/WX    TMP DP  RH WIND       PRES   REMARKS
ANTIGO         PTCLDY    60  59  96 SW10      29.84S
SHAWANO        PTCLDY    62  60  93 CALM      29.84S
OCONTO         PTCLDY    62  62 100 CALM      29.83S
STURGEON BAY   MOCLDY    64  59  82 S10       29.87R
GREEN BAY      PTCLDY    67  61  81 SW8       29.86R
MANITOWOC      NOT AVBL
APPLETON       PTCLDY    64  59  82 S10       29.86S
CLINTONVILLE   PTCLDY    61  59  94 S5        29.84S
OSHKOSH        CLEAR     66  59  78 S10       29.86S
$$

WIZ032>034-041-042-053>061-260800-
SOUTHWEST WISCONSIN

CITY           SKY/WX    TMP DP  RH WIND       PRES   REMARKS
LA CROSSE      RAIN      68  61  78 SW22G30   29.82F
SPARTA         CLOUDY    64  59  84 CALM      29.85R
VIROQUA        CLOUDY    67  65  92 S13       29.87R
BOSCOBEL       PTCLDY    69  62  78 SW10G17   29.86S
PRAIRIE DU CHI LGT RAIN  65  57  77 W12G28    29.88R
PLATTEVILLE    MOCLDY    65  62  89 S6        29.87F
$$

WIZ056-057-062-063-064-067-068-260800-
SOUTH CENTRAL WISCONSIN

CITY           SKY/WX    TMP DP  RH WIND       PRES   REMARKS
REEDSBURG      CLEAR     67  62  83 SW8       29.85F
BARABOO/DELLS  CLEAR     66  59  79 S5        29.86S
LONE ROCK      NOT AVBL
MINERAL POINT  CLEAR     64  61  88 SE3       29.89S
MADISON        CLEAR     67  60  78 S6        29.87S
MIDDLETON      CLEAR     67  59  76 CALM      29.88S
WATERTOWN      CLEAR     65  64  96 S5        29.89S
MONROE         CLEAR     64  61  88 S10       29.89F
JANESVILLE     CLEAR     64  61  88 SE5       29.90S
$$

WIZ051-052-058>065-066-070>072-260800-
SOUTHEAST WISCONSIN

CITY           SKY/WX    TMP DP  RH WIND       PRES   REMARKS
MILWAUKEE      PTCLDY    68  59  73 SW10      29.91R
WAUKESHA       CLEAR     63  59  88 S5        29.93R
MILWAUKEE/TIMM CLEAR     66  57  72 S5        29.91S
RACINE         PTCLDY    68  59  73 SW7       29.93R
BURLINGTON     CLEAR     62  58  89 S6        29.92S
KENOSHA        CLEAR     68  60  75 SW7       29.92S
FOND DU LAC    CLEAR     68  60  75 SW7       29.87S
SHEBOYGAN      PTCLDY    61  58  90 S6        29.88S
WEST BEND      CLEAR     66  59  77 S6        29.89F
JUNEAU         CLEAR     65  60  83 S7        29.90R
$$

LSZ147-162-260800-
LAKE SUPERIOR

STATION/POSITION TIME  TEMP    WIND        PRES    WAVE
                       AIR SEA DIR/SP/G            HT/PER
                 (UTC) (F)     (DEG/KT/KT) (MB)    (FT/S)
W MID LAKE BUOY  0550   39 36  300/  6/  6 1088.0R   2/ 4
DEVILS ISLAND    0600   45     250/  3/  4   N/A
PORT WING        0600   45     300/  2/  3   N/A
SAXON HARBOR     0600   48        CALM       N/A
$$

LMZ867-665-643>646-260800-
LAKE MICHIGAN

STATION/POSITION TIME  TEMP    WIND        PRES    WAVE
                       AIR SEA DIR/SP/G            HT/PER
                 (UTC) (F)     (DEG/KT/KT) (MB)    (FT/S)
CHAMBERS ISLAND  0600   62     180/  4/ 11   N/A
N MID LAKE BUOY  0550   45 37  210/ 12/ 14   N/A     2/ 5
NORTHPORT PIER   0600   59     160/  3/  5   N/A
SISTER BAY       0517   68     230/ 11/ 14   N/A
KEWAUNEE LAKESHO 0600   59     200/  5/  7   N/A
SHEBOYGAN LAKESH 0600   63     190/ 10/ 11   N/A
PORT WASHINGTON  0600          190/  8/ 12   N/A
ATWATER BUOY     0600   53 45  150/  8/ 10   N/A
MILWAUKEE LAKESH 0600   69     210/  7/  8   N/A
S MID LAKE BUOY  0550   48 38  190/ 10/ 12   N/A     1
KENOSHA   LAKESH 0600   70     200/  8/ 10   N/A
$$

TC  - TEMPERATURE IN CELSIUS
VSB - VISIBILITY IN STATUTE MILES
WCI - WIND CHILL INDEX
HX  - HEAT INDEX



USA.gov is the U.S. government's official web portal to all federal, state and local government web resources and services.